Skip Page Navigation
NASA JPL Caltech
NASA Logo - Jet Propulsion Laboratory + View the NASA Portal
+ Center for Near-Earth Object Studies
JPL Home Earth Solar System Stars & Galaxies Technology
JPL Solar System Dynamics
BODIES ORBITS EPHEMERIDES TOOLS PHYSICAL DATA DISCOVERY FAQ SITE MAP
JPL Small-Body Database Browser
Search: [ help ]  
30556 (2001 OX59)
Classification: Main-belt Asteroid          SPK-ID: 2030556
Ephemeris | Orbit Diagram | Orbital Elements | Mission Design | Physical Parameters | Discovery Circumstances ]

[ show orbit diagram ]
Orbital Elements at Epoch 2459396.5 (2021-Jul-01.0) TDB
Reference: JPL 28 (heliocentric ecliptic J2000)
 Element Value Uncertainty (1-sigma)   Units 
e .2117194011607149 3.5913e-08  
a 2.58039426563287 1.163e-08 au
q 2.034074736954536 9.2089e-08 au
i 10.18062831648658 3.058e-06 deg
node 129.0957380265925 2.185e-05 deg
peri 217.3379083337253 2.315e-05 deg
M 259.1404079632562 9.5266e-06 deg
tp 2459820.672232923620
(2022-Aug-29.17223292)
4.1274e-05 TDB
period 1514.005765528706
4.15
1.0236e-05
2.802e-08
d
yr
n .2377798078425971 1.6075e-09 deg/d
Q 3.126713794311204 1.4092e-08 au
  Orbit Determination Parameters
   # obs. used (total)      1248  
   data-arc span      10129 days (27.73 yr)  
   first obs. used      1993-09-19  
   last obs. used      2021-06-13  
   planetary ephem.      DE441  
   SB-pert. ephem.      SB441-N16  
   condition code      0  
   norm. resid. RMS      .47896  
   source      ORB  
   producer      Otto Matic  
   solution date      2021-Jul-08 19:48:57  

Additional Information
 Earth MOID = 1.0353 au 
 Jupiter MOID = 2.30138 au 
 T_jup = 3.371 
[ hide covariance matrix ]
Orbital Elements at Epoch 2457783.5 (2017-Jan-30.0) TDB
Reference: JPL 28 (heliocentric ecliptic J2000)
 Element Value Uncertainty (1-sigma)   Units 
e .2107360125936889 3.589e-08  
q 2.038692504874993 9.1863e-08 au
tp 2458305.235730320925
(2018-Jul-05.73573032)
3.802e-05 TDB
node 129.146881081467 2.1847e-05 deg
peri 217.0266914098783 2.3159e-05 deg
i 10.17776379308807 3.0575e-06 deg
  Orbit Determination Parameters
   # obs. used (total)      1248  
   data-arc span      10129 days (27.73 yr)  
   first obs. used      1993-09-19  
   last obs. used      2021-06-13  
   planetary ephem.      DE441  
   SB-pert. ephem.      SB441-N16  
   condition code      0  
   norm. resid. RMS      .47896  
   source      ORB  
   producer      Otto Matic  
   solution date      2021-Jul-08 19:48:57  

Additional Information
 Jupiter MOID = 2.30138 au 
 T_jup = 3.371 
Orbit Covariance (6×6)
  e q tp node peri i
e 1.28809593059553E-15 -3.280569913510423E-15 6.855778349962753E-13 -1.906963126344679E-15 1.270537605672549E-13 -2.731654472897306E-15
q -3.280569913510423E-15 8.438873819954578E-15 -1.686843151455629E-12 4.913078559991691E-15 -3.193493783276558E-13 7.159837849053361E-15
tp 6.855778349962753E-13 -1.686843151455629E-12 1.445551845685405E-9 2.143288576095697E-12 3.106026967417947E-10 -2.776743846959305E-12
node -1.906963126344679E-15 4.913078559991691E-15 2.143288576095697E-12 4.772764948785051E-10 -4.692833033236177E-10 1.293591808850213E-11
peri 1.270537605672549E-13 -3.193493783276558E-13 3.106026967417947E-10 -4.692833033236177E-10 5.363242474968071E-10 -1.331314945785847E-11
i -2.731654472897306E-15 7.159837849053361E-15 -2.776743846959305E-12 1.293591808850213E-11 -1.331314945785847E-11 9.348174474771104E-12

Ephemeris | Orbit Diagram | Orbital Elements | Mission Design | Physical Parameters | Discovery Circumstances ]

Physical Parameter Table
Parameter Symbol Value Units Sigma Reference Notes
absolute magnitude H 14.91   n/a E2021B10  

30556 (2001 OX59)          Discovered 2001-Jul-21 by JPL/GEODSS NEAT at Haleakala
Reference: 20011002/Numbers.arcLast Updated: 2004-04-19

Alternate Designations
 2001 OX59 = 1993 SK15 = 1999 AX23 
Ephemeris | Orbit Diagram | Orbital Elements | Mission Design | Physical Parameters | Discovery Circumstances ]
ABOUT SSD CREDITS/AWARDS PRIVACY/COPYRIGHT GLOSSARY LINKS
FirstGov 2021-Jul-28 02:29 UT
(server date/time)  
NASA Home Page
Site Manager:   Ryan S. Park
Webmaster  Alan B. Chamberlin